Flag for Finland Weather past 2 weeks in Pori, Finland

Now
55 °F

Scattered clouds.


Feels Like: 52 °F
Forecast: 46 / 62 °F
Wind: 15 mph from South

Location: Pori Airport

Current Time: May 29, 2015 at 8:26:20 PM

Latest Report: May 29, 2015 at 7:50 PM


Visibility: N/A

Pressure: 29.71 "Hg

Humidity: 55%

Dew point: 39 °F

Location of PoriLocation

Historic Weather in Pori — Graph

°F

Pori temperature yesterday

Maximum temperature yesterday: 61 °F (at 4:50 PM)
Minimum temperature yesterday: 37 °F (at 4:20 AM)
Average temperature yesterday: 52 °F

Past Weeks' High & Low Weather Summary

 TemperatureHumidityPressure
High61 °F (May 22, 1:20 PM)100% (May 16, 3:20 AM)30.04 "Hg (May 16, 3:20 AM)
Low36 °F (May 16, 3:20 AM)34% (May 28, 5:20 PM)29.53 "Hg (May 15, 2:50 AM)
Average49 °F71%29.77 "Hg
* Reported May 14 6:20 PM — May 29 6:50 PM, Pori, Weather by CustomWeather, © 2015

Note: Actual official high and low records may vary slightly from our data, if they occured in-between our weather recording intervals... More about our weather records

Advertising

Pori weather history for previous 24 hours

 ConditionsComfort  
Time TempWeatherWind HumidityBarometerVisibility
6:50 PM
Fri, May 29
57 °FPassing clouds.15 mph48%29.71 "HgN/A
6:20 PM55 °FPassing clouds.14 mph44%29.71 "HgN/A
5:50 PM57 °FPassing clouds.16 mph48%29.68 "HgN/A
5:20 PM55 °FPartly sunny.15 mph59%29.68 "HgN/A
4:50 PM55 °FPartly sunny.16 mph55%29.68 "HgN/A
4:20 PM55 °FScattered clouds.16 mph59%29.68 "HgN/A
3:50 PM55 °FScattered clouds.16 mph59%29.68 "HgN/A
3:20 PM55 °FPartly sunny.15 mph63%29.68 "HgN/A
2:50 PM55 °FPartly sunny.16 mph63%29.65 "HgN/A
2:20 PM54 °FLight rain. Partly sunny.12 mph72%29.65 "HgN/A
1:50 PM55 °FBroken clouds.14 mph63%29.65 "HgN/A
1:20 PM55 °FPartly sunny.16 mph72%29.65 "HgN/A
12:50 PM54 °FBroken clouds.13 mph82%29.65 "HgN/A
12:20 PM52 °FPartly sunny.14 mph82%29.65 "HgN/A
11:50 AM52 °FCloudy.12 mph88%29.65 "HgN/A
11:20 AM50 °FLight rain. Cloudy.13 mph94%29.65 "HgN/A
10:50 AM50 °FLight rain. Partly sunny.12 mph88%29.65 "HgN/A
10:20 AM50 °FLight rain. Cloudy.10 mph94%29.65 "HgN/A
9:50 AM50 °FLight rain. Mostly cloudy.10 mph88%29.65 "HgN/A
9:20 AM50 °FLight rain. Mostly cloudy.9 mph88%29.65 "HgN/A
8:50 AM50 °FLight rain. Overcast.12 mph82%29.65 "HgN/A
8:20 AM50 °FOvercast.13 mph82%29.62 "HgN/A
7:50 AM50 °FPartly sunny.13 mph76%29.62 "HgN/A
7:20 AM50 °FPartly sunny.14 mph76%29.62 "HgN/A
6:50 AM50 °FPartly sunny.13 mph76%29.65 "HgN/A
6:20 AM50 °FBroken clouds.13 mph76%29.65 "HgN/A
5:50 AM48 °FScattered clouds.13 mph82%29.65 "HgN/A
5:20 AM48 °FBroken clouds.12 mph76%29.65 "HgN/A
4:50 AM48 °FPartly cloudy.10 mph76%29.65 "HgN/A
4:20 AM48 °FPassing clouds.12 mph71%29.65 "HgN/A
3:50 AM48 °FPartly cloudy.10 mph76%29.65 "HgN/A
3:20 AM48 °FPassing clouds.12 mph71%29.68 "HgN/A
2:50 AM46 °FPassing clouds.10 mph76%29.68 "HgN/A
2:20 AM46 °FClear.12 mph76%29.68 "Hg10 mi
1:50 AM46 °FClear.9 mph76%29.68 "Hg10 mi
1:20 AM46 °FClear.8 mph76%29.71 "Hg10 mi
12:20 AM48 °FClear.6 mph66%29.71 "Hg10 mi
11:50 PM
Thu, May 28
52 °FClear.5 mph54%29.71 "Hg10 mi
11:20 PM52 °FPassing clouds.6 mph58%29.71 "HgN/A
10:50 PM54 °FSunny.6 mph54%29.71 "Hg10 mi
10:20 PM55 °FSunny.7 mph51%29.71 "Hg10 mi
9:50 PM57 °FSunny.12 mph44%29.71 "Hg10 mi
9:20 PM57 °FPassing clouds.9 mph48%29.71 "HgN/A
8:50 PM59 °FPassing clouds.7 mph45%29.71 "HgN/A
8:20 PM59 °FPassing clouds.6 mph48%29.71 "HgN/A
Weather by CustomWeather, © 2015

See weather overviewHow to use our weather pages